Tracking 34348 objects as of 9-Jun-2026
HD Live streaming from Space Station
objects crossing your sky now

STARLINK-37276

Track STARLINK-37276 now!
10-day predictions
STARLINK-37276 is classified as:


NORAD ID: 69258
Int'l Code: 2026-117W
Perigee: 297.5 km
Apogee: 299.0 km
Inclination: 53.2 °
Period: 90.3 minutes
Semi major axis: 6669 km
RCS: Unknown
Launch date: May 29, 2026
Source: United States (US)
Launch site: AIR FORCE EASTERN TEST RANGE (AFETR)
Your satellite tracking list
Your tracking list is empty




NASA's NSSDC Master Catalog

Two Line Element Set (TLE):
1 69258U 26117W   26159.83336806 -.00382553  58889-4 -10039-2 0  9992
2 69258  53.1551 284.9723 0001132  58.0325 167.4588 15.93995631  2829
Source of the keplerian elements: AFSPC